This demonstration page uses our WeatherBlox Daily Observations layout. Learn more.

Left ArrowRight Arrow

39.08367, -84.50855

Hourly Observations for July 16, 2020

Temp ( °F °C ) Dew Point ( °F °C ) Humidity (%) Winds ( mph kmh ) Pressure ( in mb ) Visibility ( mi km ) Precip ( " mm )
12:53 am 00:53 Clear 73 22.8 70 21.1 90 90 WSW 6 9 29.98 1015 10 16 N/A
1:53 am 01:53 Clear 73 22.8 68 20 84 84 S 7 11 29.94 1014 10 16 N/A
2:53 am 02:53 Clear 74 23.3 67 19.4 79 79 SSW 5 7 29.93 1014 10 16 N/A
3:53 am 03:53 Clear 77 25 67 19.4 71 71 N N/A 29.91 1013 10 16 N/A
4:53 am 04:53 Mostly Cloudy 78 25.6 67 19.4 69 69 SW 3 6 29.91 1013 10 16 N/A
5:53 am 05:53 Mostly Clear 78 25.6 67 19.4 69 69 SSE 15 24 29.91 1013 10 16 N/A
6:53 am 06:53 Mostly Cloudy 76 24.4 68 20 77 77 SSW 6 9 29.94 1014 10 16 N/A
7:53 am 07:53 Mostly Cloudy 77 25 69 20.6 77 77 SSW 7 11 29.96 1015 10 16 N/A
8:53 am 08:53 Cloudy 78 25.6 69 20.6 74 74 SSW 9 15 29.98 1015 10 16 N/A
9:53 am 09:53 Cloudy 79 26.1 71 21.7 77 77 SSW 16 26 30.00 1016 10 16 N/A
10:53 am 10:53 Partly Cloudy 81 27.2 73 22.8 77 77 SSW 16 26 30.01 1016 10 16 N/A
11:53 am 11:53 Partly Cloudy 83 28.3 73 22.8 72 72 SSW 14 22 30.02 1017 10 16 N/A
12:53 pm 12:53 Mostly Cloudy 86 30 72 22.2 63 63 SW 14 22 30.01 1016 10 16 N/A
1:53 pm 13:53 Mostly Cloudy 86 30 72 22.2 63 63 WSW 15 24 30.02 1017 10 16 N/A
2:53 pm 14:53 Mostly Cloudy 86 30 71 21.7 61 61 SW 16 26 30.02 1017 10 16 N/A
3:53 pm 15:53 Mostly Cloudy 87 30.6 71 21.7 59 59 SW 13 20 30.01 1016 10 16 N/A
4:53 pm 16:53 Mostly Cloudy 86 30 70 21.1 59 59 W 12 19 30.01 1016 10 16 N/A
5:53 pm 17:53 Mostly Cloudy 86 30 70 21.1 59 59 WNW 12 19 30.03 1017 10 16 N/A
6:53 pm 18:53 Mostly Cloudy 84 28.9 69 20.6 61 61 W 9 15 30.04 1017 10 16 N/A
7:53 pm 19:53 Mostly Sunny 83 28.3 70 21.1 65 65 NNW 8 13 30.04 1017 10 16 N/A
8:53 pm 20:53 Mostly Cloudy 80 26.7 69 20.6 69 69 NW 8 13 30.06 1018 10 16 N/A
9:53 pm 21:53 Clear 78 25.6 69 20.6 74 74 VRB 6 9 30.08 1019 10 16 N/A
10:53 pm 22:53 Clear 77 25 68 20 74 74 VRB 6 9 30.09 1019 10 16 N/A
11:53 pm 23:53 Clear 75 23.9 68 20 79 79 WNW 5 7 30.10 1019 10 16 N/A

Powered by AerisWeather